Regional Weather Roundup
Issued by NWS Green Bay, WI

Home | Current Version | Previous Version | Graphics & Text | Print | Product List | Glossary Off
Versions: 1 2 3 4 5 6 7 8 9 10 11 12 13 14 15 16 17 18 19 20 21 22 23 24 25 26 27 28 29 30 31 32 33 34 35 36 37 38 39 40 41 42 43 44 45 46 47 48 49 50

000
ASUS43 KGRB 291211
RWRGRB

NORTH-CENTRAL AND NORTHEAST WISCONSIN REGIONAL WEATHER ROUNDUP
NATIONAL WEATHER SERVICE GREEN BAY WI
700 AM CDT WED MAR 29 2017

WIZ005-009-010>012-018-019-291300-
NORTH CENTRAL WISCONSIN

CITY           SKY/WX    TMP DP  RH WIND       PRES   REMARKS
IRONWOOD       CLOUDY    31  27  85 E8        30.31R
MANITOWISH WTR CLOUDY    30  29  99 E3        30.29R
ARBOR VITAE    CLOUDY    32  28  84 E3        30.28S
EAGLE RIVER    CLEAR     25  25 100 CALM      30.31R
LAND O LAKES   CLEAR     24  24  98 CALM      30.33R
RHINELANDER    CLOUDY    30  26  85 E5        30.30R
PHILLIPS       CLOUDY    30  28  91 CALM      30.27S
ANTIGO         CLEAR     32  26  76 E7        30.30R
TOMAHAWK       CLOUDY    24  22  93 CALM      30.29S
MERRILL        PTCLDY    27  27  99 CALM      30.30R
$$

WIZ013-073-291300-
NORTHEAST WISCONSIN

CITY           SKY/WX    TMP DP  RH WIND       PRES   REMARKS
IRON MOUNTAIN  CLEAR     25  21  85 CALM      30.33R
MARINETTE        N/A    N/A N/A N/A MISG        N/A
OCONTO         CLEAR     28  28  99 CALM      30.33R
$$

WIZ017-030-035>037-045-291300-
CENTRAL WISCONSIN

CITY           SKY/WX    TMP DP  RH WIND       PRES   REMARKS
MEDFORD        PTCLDY    32  28  83 E8        30.27R
WAUSAU         PTCLDY    31  28  89 CALM      30.28R
MOSINEE        PTCLDY    36  28  75 E7        30.29R
MARSHFIELD     PTCLDY    36  28  73 E8        30.26R
WISC RAPIDS    PTCLDY    36  30  79 E5        30.29R
STEVENS POINT  CLOUDY    34  29  80 NE9       30.28S
WAUPACA        PTCLDY    35  32  90 N3        30.30R
SHAWANO        CLEAR     34  29  83 NE8       30.33R
CLINTONVILLE   CLOUDY    32  30  93 NE7       30.31R
WAUTOMA        MOCLDY    35  31  85 NE6       30.29R
$$

WIZ038-039-048-051-291300-
FOX VALLEY

CITY           SKY/WX    TMP DP  RH WIND       PRES   REMARKS
NWS GREEN BAY  CLEAR     33  32  96 NE8       30.31R
APPLETON       PTCLDY    36  28  75 NE6       30.28R
OSHKOSH        PTCLDY    37  30  75 NE5       30.29R
FOND DU LAC    PTCLDY    36  30  79 NE5       30.29R
$$

WIZ022-050-052-291300-
EAST CENTRAL WISCONSIN

CITY           SKY/WX    TMP DP  RH WIND       PRES   REMARKS
EPHRAIM        FAIR      31  31 100 N6        30.33R
WASHINGTON ISL FAIR      30  28  93 NE3       30.34R
STURGEON BAY   CLEAR     35  28  75 NE8       30.30R
MANITOWOC      CLEAR     34  32  92 N6        30.31R
SHEBOYGAN      CLOUDY    33  32  96 NE5       30.29R
$$

LMZ563-521-522-541>543-291300-
LAKESHORE

STATION/POSITION TIME  TEMP    WIND        PRES    VSBY  WAVE
                       AIR SEA DIR/SP/G                  HT/PER
                 (UTC) (F)     (DEG/KT/KT) (MB)    (MI)  (FT/S)
SHEBOYGAN LKSHOR 1200   37     360/  6/  7 1026.2R
KEWAUNEE LKSHORE 1148   36      30/  8/ 13 1025.9R
NORTHPORT PIER   1140   32     360/  3/  4 1027.1R
SISTER BAY LKSHO 1106   32        CALM       N/A
CHAMBERS ISLAND  1140   32      10/  9/ 11 1027.1R
MENOMINEE LKSHOR 1148   32      10/  9/ 11 1026.7R
$$




USA.gov is the U.S. government's official web portal to all federal, state and local government web resources and services.